Regional Weather Roundup
Issued by NWS

Home | Current Version | Previous Version | Text Only | Print | Product List | Glossary On
Versions: 1 2 3 4 5 6 7 8 9 10 11 12 13 14 15 16 17 18 19 20 21 22 23 24 25 26 27
000
ASUS45 KSLC 172110
RWRUT

UTAH REGIONAL WEATHER ROUNDUP
NATIONAL WEATHER SERVICE SALT LAKE CITY UT
200 PM MST FRI NOV 17 2017

UTZ001>011-023>025-172200-

NORTHERN UTAH

CITY           SKY/WX    TMP DP  RH WIND       PRES   REMARKS
BRIGHAM CITY   CLOUDY    40  29  65 N5        29.94R
HILL AFB       CLOUDY    36  29  76 N9        29.93R WCI  29
LOGAN          CLOUDY    40  31  70 W10       29.91R WCI  33
OGDEN          CLOUDY    39  31  72 N7        29.93R WCI  34
SALT LAKE CITY CLOUDY    39  36  89 N5        29.96R
TOOELE VALLEY  LGT RAIN  39  36  87 NE5       29.98R
WENDOVER       CLOUDY    43  26  51 NW15G23   30.01R
HEBER CITY     MIX PCPN  34  32  93 SE3       29.85R
WEST JORDAN    CLOUDY    33  33 100 NW6       29.97R WCI  27

$$

UTZ011>015-024>027-172200-

CENTRAL/NORTHEAST UTAH

CITY           SKY/WX    TMP DP  RH WIND       PRES   REMARKS
PROVO AIRPORT  LGT RAIN  38  34  85 N24G32    29.92R WCI  27
MOAB/CANYONLAN MOSUNNY   70  31  23 SW25G38   29.66F
DELTA          CLOUDY    37  32  81 N31G43    29.91R WCI  25
PRICE          CLOUDY    48  33  56 NW24G38   29.74R
RICHFIELD      PTSUNNY   54  36  50 W12G32    29.79F HAZE
ROOSEVELT      CLOUDY    45  36  70 W14       29.74R
VERNAL         LGT RAIN  48  36  63 SW16G32   29.68R

$$

UTZ013>016-019>022-027-172200-

SOUTHERN UTAH

CITY           SKY/WX    TMP DP  RH WIND       PRES   REMARKS
BRYCE CANYON   MOSUNNY   52  30  43 W28G38    29.94F
CEDAR CITY     CLOUDY    58  35  42 SW18G25   29.88R
MILFORD        MOSUNNY   64  34  32 SW29G43   29.81F
ST GEORGE      CLOUDY    69  39  33 W12       29.86F
HANKSVILLE     PTSUNNY   70  30  23 SW20G32   29.73F
KANAB          MOSUNNY   63  36  36 SW24G37   29.94F
BLANDING         N/A     61  32  33 SW26G35   29.92F

$$

REGIONAL REPORTS     COLORADO/ARIZONA

CITY           SKY/WX    TMP DP  RH WIND       PRES   REMARKS
CRAIG, CO      LGT RAIN  36  31  82 W8G17     29.74R WCI  30
GRAND JUNCTION LGT RAIN  68  31  25 W23G38    29.68F
RIFLE, CO      CLOUDY    61  32  33 SW28G36   29.65F
MONTROSE, CO   LGT RAIN  57  37  47 SW17G26   29.80F
CORTEZ, CO     CLOUDY    58  36  43 SW28G36   29.91F
COLORADO CITY    N/A     68  36  30 SW23G31   29.95S
PAGE, AZ       MOSUNNY   69  34  27 W17G30    29.83F
GRAND CANYON   CLOUDY    53  38  56 SW22G35   30.04F
KINGMAN, AZ    CLOUDY    67  39  35 SW26G36   29.98F
FLAGSTAFF, AZ  CLOUDY    43  39  86 SW13G22   30.10F

$$

REGIONAL REPORTS    NEVADA/IDAHO/WYOMING

CITY           SKY/WX    TMP DP  RH WIND       PRES   REMARKS
LAS VEGAS, NV  PTSUNNY   76  41  28 W28G40    29.85S
ELY, NY        CLOUDY    37  27  67 NW16G25   30.04R WCI  28
ELKO, NV       CLOUDY    31  27  85 SE6       30.09R WCI  25
POCATELLO, ID  CLOUDY    37  31  78 W29G36    29.90R WCI  25
BURLEY, ID     FLURRIES  39  28  64 W21G35    29.96R WCI  29
FORT BRIDGER,  LGT SNOW  29  29 100 NW20G28   29.84R VSB 3/4 WCI  17
EVANSTON, WY   CLOUDY    27  24  89 W17       29.86R FOG     WCI  14
ROCK SPRINGS,  LGT SNOW  31  29  92 W23G30    29.75R FOG     WCI  18

$$




USA.gov is the U.S. government's official web portal to all federal, state and local government web resources and services.